• In Belarus
  • List of Countries
  • For 7 days
  • Water Temperature
  • Satellite Maps
  • Weather Map
  • Weather Widgets
  • user-avatar
    Login

    Hourly Weather Shaki

    Today, 20 September, Wednesday

    Time Temperature Precipitation Wind Pressure Humidity
    00:00 +24°C° 0 mm 2 mps 736 mmHg 39%
    01:00 +24°C° 0 mm 2 mps 736 mmHg 40%
    02:00 +23°C° 0 mm 1 mps 736 mmHg 41%
    03:00 +23°C° 0 mm 1 mps 736 mmHg 42%
    04:00 +23°C° 0 mm 1 mps 736 mmHg 42%
    05:00 +23°C° 0 mm 1 mps 736 mmHg 42%
    06:00 +23°C° 0 mm 1 mps 736 mmHg 42%
    07:00 +25°C° 0 mm 1 mps 736 mmHg 39%
    08:00 +27°C° 0 mm 1 mps 736 mmHg 35%
    09:00 +29°C° 0 mm 2 mps 736 mmHg 32%
    10:00 +30°C° 0 mm 2 mps 736 mmHg 30%
    11:00 +31°C° 0 mm 2 mps 736 mmHg 27%
    12:00 +32°C° 0 mm 1 mps 736 mmHg 25%
    13:00 +33°C° 0 mm 1 mps 735 mmHg 24%
    14:00 +33°C° 0 mm 1 mps 735 mmHg 24%
    15:00 +33°C° 0 mm 1 mps 735 mmHg 23%
    16:00 +31°C° 0 mm 1 mps 735 mmHg 27%
    17:00 +30°C° 0 mm 1 mps 735 mmHg 30%
    18:00 +28°C° 0 mm 1 mps 735 mmHg 34%
    19:00 +27°C° 0 mm 1 mps 735 mmHg 35%
    20:00 +27°C° 0 mm 2 mps 735 mmHg 36%
    21:00 +26°C° 0 mm 2 mps 736 mmHg 37%
    22:00 +25°C° 0 mm 2 mps 736 mmHg 38%
    23:00 +25°C° 0 mm 2 mps 736 mmHg 40%

    Tomorrow, 21 September, Thursday

    Time Temperature Precipitation Wind Pressure Humidity
    00:00 +24°C° 0 mm 2 mps 736 mmHg 41%
    01:00 +24°C° 0 mm 2 mps 735 mmHg 42%
    02:00 +24°C° 0 mm 1 mps 735 mmHg 42%
    03:00 +23°C° 0 mm 1 mps 735 mmHg 43%
    04:00 +23°C° 0 mm 1 mps 735 mmHg 43%
    05:00 +23°C° 0 mm 1 mps 735 mmHg 43%
    06:00 +23°C° 0 mm 1 mps 736 mmHg 43%
    07:00 +25°C° 0 mm 1 mps 736 mmHg 38%
    08:00 +27°C° 0 mm 1 mps 736 mmHg 33%
    09:00 +30°C° 0 mm 2 mps 736 mmHg 28%
    10:00 +31°C° 0 mm 2 mps 735 mmHg 27%
    11:00 +32°C° 0 mm 2 mps 735 mmHg 25%
    12:00 +34°C° 0 mm 2 mps 735 mmHg 24%
    13:00 +34°C° 0 mm 2 mps 735 mmHg 23%
    14:00 +34°C° 0 mm 2 mps 734 mmHg 23%
    15:00 +35°C° 0 mm 3 mps 734 mmHg 23%
    16:00 +32°C° 0 mm 2 mps 734 mmHg 26%
    17:00 +30°C° 0 mm 2 mps 734 mmHg 30%
    18:00 +28°C° 0 mm 2 mps 734 mmHg 33%
    19:00 +27°C° 0 mm 2 mps 734 mmHg 35%
    20:00 +27°C° 0 mm 3 mps 735 mmHg 37%
    21:00 +26°C° 0 mm 3 mps 735 mmHg 39%
    22:00 +25°C° 0 mm 3 mps 735 mmHg 41%
    23:00 +25°C° 0 mm 2 mps 735 mmHg 42%

    Day after tomorrow, 22 September, Friday

    Time Temperature Precipitation Wind Pressure Humidity
    00:00 +24°C° 0 mm 2 mps 735 mmHg 44%
    01:00 +24°C° 0 mm 2 mps 735 mmHg 44%
    02:00 +23°C° 0 mm 2 mps 735 mmHg 45%
    03:00 +23°C° 0 mm 1 mps 735 mmHg 45%
    04:00 +23°C° 0 mm 1 mps 735 mmHg 45%
    05:00 +22°C° 0 mm 1 mps 735 mmHg 44%
    06:00 +22°C° 0 mm 1 mps 735 mmHg 44%
    07:00 +24°C° 0 mm 1 mps 735 mmHg 38%
    08:00 +27°C° 0 mm 1 mps 735 mmHg 32%
    09:00 +29°C° 0 mm 1 mps 735 mmHg 25%
    10:00 +30°C° 0 mm 1 mps 734 mmHg 23%
    11:00 +31°C° 0 mm 2 mps 734 mmHg 21%
    12:00 +32°C° 0 mm 2 mps 734 mmHg 19%
    13:00 +34°C° 0 mm 2 mps 733 mmHg 19%
    14:00 +34°C° 0 mm 3 mps 733 mmHg 18%
    15:00 +34°C° 0 mm 3 mps 733 mmHg 18%
    16:00 +31°C° 0 mm 2 mps 733 mmHg 21%
    17:00 +29°C° 0 mm 2 mps 733 mmHg 24%
    18:00 +27°C° 0 mm 2 mps 733 mmHg 27%
    19:00 +27°C° 0 mm 2 mps 734 mmHg 28%
    20:00 +26°C° 0 mm 2 mps 734 mmHg 29%
    21:00 +25°C° 0 mm 2 mps 734 mmHg 31%
    22:00 +25°C° 0 mm 2 mps 735 mmHg 32%
    23:00 +24°C° 0 mm 2 mps 735 mmHg 34%

    23 September, Saturday

    Time Temperature Precipitation Wind Pressure Humidity
    00:00 +23°C° 0 mm 2 mps 735 mmHg 36%
    01:00 +23°C° 0 mm 2 mps 735 mmHg 36%
    02:00 +23°C° 0 mm 1 mps 735 mmHg 36%
    03:00 +23°C° 0 mm 1 mps 735 mmHg 36%
    04:00 +23°C° 0 mm 1 mps 735 mmHg 36%
    05:00 +22°C° 0 mm 1 mps 736 mmHg 36%
    06:00 +22°C° 0 mm 1 mps 736 mmHg 36%
    07:00 +24°C° 0 mm 1 mps 736 mmHg 33%
    08:00 +27°C° 0 mm 1 mps 737 mmHg 30%
    09:00 +29°C° 0 mm 2 mps 737 mmHg 26%
    10:00 +30°C° 0 mm 2 mps 737 mmHg 25%
    11:00 +31°C° 0 mm 2 mps 737 mmHg 23%
    12:00 +32°C° 0 mm 2 mps 737 mmHg 22%
    13:00 +32°C° 0 mm 2 mps 737 mmHg 21%
    14:00 +33°C° 0 mm 3 mps 736 mmHg 21%
    15:00 +34°C° 0 mm 3 mps 736 mmHg 20%
    16:00 +31°C° 0 mm 3 mps 737 mmHg 23%
    17:00 +29°C° 0 mm 3 mps 737 mmHg 26%
    18:00 +27°C° 0 mm 2 mps 737 mmHg 29%
    19:00 +26°C° 0 mm 3 mps 738 mmHg 29%
    20:00 +25°C° 0 mm 3 mps 738 mmHg 29%
    21:00 +25°C° 0 mm 3 mps 738 mmHg 30%
    22:00 +24°C° 0 mm 3 mps 738 mmHg 31%
    23:00 +24°C° 0 mm 2 mps 738 mmHg 31%

    24 September, Sunday

    Time Temperature Precipitation Wind Pressure Humidity
    00:00 +23°C° 0 mm 2 mps 738 mmHg 32%
    01:00 +23°C° 0 mm 2 mps 738 mmHg 32%
    02:00 +21°C° 0 mm 2 mps 738 mmHg 31%
    03:00 +21°C° 0 mm 2 mps 738 mmHg 31%
    04:00 +21°C° 0 mm 2 mps 738 mmHg 30%
    05:00 +22°C° 0 mm 1 mps 738 mmHg 30%
    06:00 +21°C° 0 mm 1 mps 739 mmHg 29%
    07:00 +24°C° 0 mm 1 mps 739 mmHg 26%
    08:00 +26°C° 0 mm 1 mps 739 mmHg 23%
    09:00 +28°C° 0 mm 1 mps 739 mmHg 20%
    10:00 +29°C° 0 mm 2 mps 739 mmHg 19%
    11:00 +30°C° 0 mm 2 mps 738 mmHg 19%
    12:00 +31°C° 0 mm 2 mps 738 mmHg 18%
    13:00 +32°C° 0 mm 2 mps 738 mmHg 18%
    14:00 +33°C° 0 mm 3 mps 738 mmHg 18%
    15:00 +33°C° 0 mm 3 mps 738 mmHg 17%
    16:00 +30°C° 0 mm 3 mps 738 mmHg 20%
    17:00 +28°C° 0 mm 3 mps 738 mmHg 23%
    18:00 +27°C° 0 mm 2 mps 738 mmHg 25%
    19:00 +26°C° 0 mm 3 mps 739 mmHg 27%
    20:00 +25°C° 0 mm 3 mps 739 mmHg 29%
    21:00 +24°C° 0 mm 3 mps 739 mmHg 31%
    22:00 +24°C° 0 mm 3 mps 739 mmHg 32%
    23:00 +23°C° 0 mm 2 mps 739 mmHg 34%

    25 September, Monday

    Time Temperature Precipitation Wind Pressure Humidity
    00:00 +23°C° 0 mm 2 mps 739 mmHg 36%
    01:00 +21°C° 0 mm 2 mps 739 mmHg 35%
    02:00 +21°C° 0 mm 2 mps 739 mmHg 35%
    03:00 +21°C° 0 mm 2 mps 739 mmHg 35%
    04:00 +20°C° 0 mm 2 mps 739 mmHg 35%
    05:00 +20°C° 0 mm 2 mps 739 mmHg 34%
    06:00 +20°C° 0 mm 2 mps 739 mmHg 34%
    07:00 +23°C° 0 mm 2 mps 740 mmHg 32%
    08:00 +25°C° 0 mm 2 mps 740 mmHg 30%
    09:00 +27°C° 0 mm 2 mps 740 mmHg 28%
    10:00 +28°C° 0 mm 3 mps 740 mmHg 28%
    11:00 +29°C° 0 mm 3 mps 739 mmHg 28%
    12:00 +30°C° 0 mm 4 mps 739 mmHg 28%
    13:00 +30°C° 0 mm 4 mps 739 mmHg 28%
    14:00 +32°C° 0 mm 4 mps 739 mmHg 28%
    15:00 +32°C° 0 mm 4 mps 739 mmHg 28%
    16:00 +29°C° 0 mm 4 mps 739 mmHg 31%
    17:00 +27°C° 0 mm 3 mps 739 mmHg 35%
    18:00 +25°C° 0 mm 3 mps 739 mmHg 39%
    19:00 +25°C° 0 mm 3 mps 740 mmHg 40%
    20:00 +24°C° 0 mm 3 mps 740 mmHg 42%
    21:00 +22°C° 0 mm 4 mps 740 mmHg 43%
    22:00 +21°C° 0 mm 3 mps 740 mmHg 45%
    23:00 +21°C° 0 mm 3 mps 740 mmHg 46%
    Show more